Year,Month,Day,Hour,Minute,Value (Times are PST for temperature in C)
2012,04,23,00,00,11.80
2012,04,23,00,01,11.80
2012,04,23,00,02,11.80
2012,04,23,00,03,11.70
2012,04,23,00,04,11.70
2012,04,23,00,05,11.70
2012,04,23,00,06,11.70
2012,04,23,00,07,11.60
2012,04,23,00,08,11.60
2012,04,23,00,09,11.60
2012,04,23,00,10,11.60
2012,04,23,00,11,11.60
2012,04,23,00,12,11.60
2012,04,23,00,13,11.50
2012,04,23,00,14,11.50
2012,04,23,00,15,11.50
2012,04,23,00,16,11.50
2012,04,23,00,17,11.40
2012,04,23,00,18,11.40
2012,04,23,00,19,11.40
2012,04,23,00,20,11.40
2012,04,23,00,21,11.40
2012,04,23,00,22,11.40
2012,04,23,00,23,11.30
2012,04,23,00,24,11.30
2012,04,23,00,25,11.30
2012,04,23,00,26,11.30
2012,04,23,00,27,11.30
2012,04,23,00,28,11.30
2012,04,23,00,29,11.30
2012,04,23,00,30,11.30
2012,04,23,00,31,11.30
2012,04,23,00,32,11.20
2012,04,23,00,33,11.20
2012,04,23,00,34,11.20
2012,04,23,00,35,11.20
2012,04,23,00,36,11.20
2012,04,23,00,37,11.20
2012,04,23,00,38,11.20
2012,04,23,00,39,11.20
2012,04,23,00,40,11.20
2012,04,23,00,41,11.20
2012,04,23,00,42,11.20
2012,04,23,00,43,11.20
2012,04,23,00,44,11.20
2012,04,23,00,45,11.20
2012,04,23,00,46,11.20
2012,04,23,00,47,11.20
2012,04,23,00,48,11.20
2012,04,23,00,49,11.20
2012,04,23,00,50,11.20
2012,04,23,00,51,11.20
2012,04,23,00,52,11.20
2012,04,23,00,53,11.20
2012,04,23,00,54,11.20
2012,04,23,00,55,11.20
2012,04,23,00,56,11.30
2012,04,23,00,57,11.30
2012,04,23,00,58,11.30
2012,04,23,00,59,11.30
2012,04,23,01,00,11.30
2012,04,23,01,01,11.30
2012,04,23,01,02,11.20
2012,04,23,01,03,11.20
2012,04,23,01,04,11.20
2012,04,23,01,05,11.10
2012,04,23,01,06,11.10
2012,04,23,01,07,11.10
2012,04,23,01,08,11.00
2012,04,23,01,09,11.00
2012,04,23,01,10,10.90
2012,04,23,01,11,10.90
2012,04,23,01,12,10.90
2012,04,23,01,13,10.90
2012,04,23,01,14,10.90
2012,04,23,01,15,10.90
2012,04,23,01,16,11.00
2012,04,23,01,17,11.00
2012,04,23,01,18,11.10
2012,04,23,01,19,11.10
2012,04,23,01,20,11.10
2012,04,23,01,21,11.20
2012,04,23,01,22,11.20
2012,04,23,01,23,11.20
2012,04,23,01,24,11.20
2012,04,23,01,25,11.20
2012,04,23,01,26,11.30
2012,04,23,01,27,11.30
2012,04,23,01,28,11.20
2012,04,23,01,29,11.10
2012,04,23,01,30,11.10
2012,04,23,01,31,11.00
2012,04,23,01,32,10.90
2012,04,23,01,33,10.90
2012,04,23,01,34,10.80
2012,04,23,01,35,10.80
2012,04,23,01,36,10.70
2012,04,23,01,37,10.70
2012,04,23,01,38,10.70
2012,04,23,01,39,10.70
2012,04,23,01,40,10.70
2012,04,23,01,41,10.70
2012,04,23,01,42,10.70
2012,04,23,01,43,10.70
2012,04,23,01,44,10.70
2012,04,23,01,45,10.70
2012,04,23,01,46,10.70
2012,04,23,01,47,10.70
2012,04,23,01,48,10.70
2012,04,23,01,49,10.70
2012,04,23,01,50,10.60
2012,04,23,01,51,10.60
2012,04,23,01,52,10.60
2012,04,23,01,53,10.60
2012,04,23,01,54,10.50
2012,04,23,01,55,10.50
2012,04,23,01,56,10.50
2012,04,23,01,57,10.40
2012,04,23,01,58,10.40
2012,04,23,01,59,10.40
2012,04,23,02,00,10.30
2012,04,23,02,01,10.30
2012,04,23,02,02,10.30
2012,04,23,02,03,10.30
2012,04,23,02,04,10.30
2012,04,23,02,05,10.30
2012,04,23,02,06,10.30
2012,04,23,02,07,10.40
2012,04,23,02,08,10.40
2012,04,23,02,09,10.30
2012,04,23,02,10,10.30
2012,04,23,02,11,10.30
2012,04,23,02,12,10.30
2012,04,23,02,13,10.30
2012,04,23,02,14,10.30
2012,04,23,02,15,10.30
2012,04,23,02,16,10.30
2012,04,23,02,17,10.30
2012,04,23,02,18,10.30
2012,04,23,02,19,10.30
2012,04,23,02,20,10.30
2012,04,23,02,21,10.30
2012,04,23,02,22,10.30
2012,04,23,02,23,10.30
2012,04,23,02,24,10.20
2012,04,23,02,25,10.20
2012,04,23,02,26,10.10
2012,04,23,02,27,10.10
2012,04,23,02,28,10.10
2012,04,23,02,29,10.10
2012,04,23,02,30,10.20
2012,04,23,02,31,10.30
2012,04,23,02,32,10.30
2012,04,23,02,33,10.40
2012,04,23,02,34,10.50
2012,04,23,02,35,10.60
2012,04,23,02,36,10.60
2012,04,23,02,37,10.60
2012,04,23,02,38,10.70
2012,04,23,02,39,10.70
2012,04,23,02,40,10.80
2012,04,23,02,41,10.80
2012,04,23,02,42,10.80
2012,04,23,02,43,10.80
2012,04,23,02,44,10.80
2012,04,23,02,45,10.80
2012,04,23,02,46,10.70
2012,04,23,02,47,10.60
2012,04,23,02,48,10.50
2012,04,23,02,49,10.50
2012,04,23,02,50,10.40
2012,04,23,02,51,10.40
2012,04,23,02,52,10.50
2012,04,23,02,53,10.50
2012,04,23,02,54,10.60
2012,04,23,02,55,10.60
2012,04,23,02,56,10.60
2012,04,23,02,57,10.60
2012,04,23,02,58,10.60
2012,04,23,02,59,10.50
2012,04,23,03,00,10.50
2012,04,23,03,01,10.50
2012,04,23,03,02,10.50
2012,04,23,03,03,10.50
2012,04,23,03,04,10.40
2012,04,23,03,05,10.40
2012,04,23,03,06,10.30
2012,04,23,03,07,10.30
2012,04,23,03,08,10.30
2012,04,23,03,09,10.30
2012,04,23,03,10,10.30
2012,04,23,03,11,10.30
2012,04,23,03,12,10.30
2012,04,23,03,13,10.30
2012,04,23,03,14,10.30
2012,04,23,03,15,10.30
2012,04,23,03,16,10.30
2012,04,23,03,17,10.30
2012,04,23,03,18,10.30
2012,04,23,03,19,10.30
2012,04,23,03,20,10.30
2012,04,23,03,21,10.30
2012,04,23,03,22,10.30
2012,04,23,03,23,10.30
2012,04,23,03,24,10.40
2012,04,23,03,25,10.40
2012,04,23,03,26,10.40
2012,04,23,03,27,10.40
2012,04,23,03,28,10.40
2012,04,23,03,29,10.40
2012,04,23,03,30,10.40
2012,04,23,03,31,10.40
2012,04,23,03,32,10.40
2012,04,23,03,33,10.40
2012,04,23,03,34,10.40
2012,04,23,03,35,10.40
2012,04,23,03,36,10.50
2012,04,23,03,37,10.50
2012,04,23,03,38,10.60
2012,04,23,03,39,10.60
2012,04,23,03,40,10.60
2012,04,23,03,41,10.60
2012,04,23,03,42,10.70
2012,04,23,03,43,10.70
2012,04,23,03,44,10.70
2012,04,23,03,45,10.70
2012,04,23,03,46,10.70
2012,04,23,03,47,10.70
2012,04,23,03,48,10.70
2012,04,23,03,49,10.70
2012,04,23,03,50,10.70
2012,04,23,03,51,10.70
2012,04,23,03,52,10.70
2012,04,23,03,53,10.70
2012,04,23,03,54,10.60
2012,04,23,03,55,10.70
2012,04,23,03,56,10.70
2012,04,23,03,57,10.70
2012,04,23,03,58,10.70
2012,04,23,03,59,10.70
2012,04,23,04,00,10.70
2012,04,23,04,01,10.70
2012,04,23,04,02,10.70
2012,04,23,04,03,10.60
2012,04,23,04,04,10.50
2012,04,23,04,05,10.50
2012,04,23,04,06,10.40
2012,04,23,04,07,10.30
2012,04,23,04,08,10.30
2012,04,23,04,09,10.20
2012,04,23,04,10,10.10
2012,04,23,04,11,10.00
2012,04,23,04,12,9.80
2012,04,23,04,13,9.70
2012,04,23,04,14,9.60
2012,04,23,04,15,9.60
2012,04,23,04,16,9.50
2012,04,23,04,17,9.50
2012,04,23,04,18,9.50
2012,04,23,04,19,9.50
2012,04,23,04,20,9.50
2012,04,23,04,21,9.40
2012,04,23,04,22,9.40
2012,04,23,04,23,9.40
2012,04,23,04,24,9.40
2012,04,23,04,25,9.40
2012,04,23,04,26,9.40
2012,04,23,04,27,9.40
2012,04,23,04,28,9.30
2012,04,23,04,29,9.30
2012,04,23,04,30,9.30
2012,04,23,04,31,9.30
2012,04,23,04,32,9.30
2012,04,23,04,33,9.30
2012,04,23,04,34,9.20
2012,04,23,04,35,9.20
2012,04,23,04,36,9.20
2012,04,23,04,37,9.10
2012,04,23,04,38,9.10
2012,04,23,04,39,9.10
2012,04,23,04,40,9.00
2012,04,23,04,41,9.00
2012,04,23,04,42,9.00
2012,04,23,04,43,8.90
2012,04,23,04,44,8.90
2012,04,23,04,45,8.90
2012,04,23,04,46,8.90
2012,04,23,04,47,8.80
2012,04,23,04,48,8.80
2012,04,23,04,49,8.80
2012,04,23,04,50,8.80
2012,04,23,04,51,8.70
2012,04,23,04,52,8.70
2012,04,23,04,53,8.70
2012,04,23,04,54,8.70
2012,04,23,04,55,8.70
2012,04,23,04,56,8.60
2012,04,23,04,57,8.60
2012,04,23,04,58,8.60
2012,04,23,04,59,8.50
2012,04,23,05,00,8.50
2012,04,23,05,01,8.50
2012,04,23,05,02,8.50
2012,04,23,05,03,8.50
2012,04,23,05,04,8.50
2012,04,23,05,05,8.50
2012,04,23,05,06,8.50
2012,04,23,05,07,8.50
2012,04,23,05,08,8.50
2012,04,23,05,09,8.50
2012,04,23,05,10,8.50
2012,04,23,05,11,8.50
2012,04,23,05,12,8.50
2012,04,23,05,13,8.50
2012,04,23,05,14,8.50
2012,04,23,05,15,8.40
2012,04,23,05,16,8.40
2012,04,23,05,17,8.40
2012,04,23,05,18,8.40
2012,04,23,05,19,8.40
2012,04,23,05,20,8.40
2012,04,23,05,21,8.40
2012,04,23,05,22,8.40
2012,04,23,05,23,8.40
2012,04,23,05,24,8.40
2012,04,23,05,25,8.50
2012,04,23,05,26,8.50
2012,04,23,05,27,8.50
2012,04,23,05,28,8.50
2012,04,23,05,29,8.50
2012,04,23,05,30,8.50
2012,04,23,05,31,8.50
2012,04,23,05,32,8.50
2012,04,23,05,33,8.50
2012,04,23,05,34,8.50
2012,04,23,05,35,8.50
2012,04,23,05,36,8.50
2012,04,23,05,37,8.60
2012,04,23,05,38,8.60
2012,04,23,05,39,8.60
2012,04,23,05,40,8.70
2012,04,23,05,41,8.70
2012,04,23,05,42,8.70
2012,04,23,05,43,8.80
2012,04,23,05,44,8.80
2012,04,23,05,45,8.80
2012,04,23,05,46,8.80
2012,04,23,05,47,8.70
2012,04,23,05,48,8.70
2012,04,23,05,49,8.70
2012,04,23,05,50,8.70
2012,04,23,05,51,8.70
2012,04,23,05,52,8.70
2012,04,23,05,53,8.70
2012,04,23,05,54,8.70
2012,04,23,05,55,8.70
2012,04,23,05,56,8.70
2012,04,23,05,57,8.70
2012,04,23,05,58,8.60
2012,04,23,05,59,8.60
2012,04,23,06,00,8.60
2012,04,23,06,01,8.60
2012,04,23,06,02,8.60
2012,04,23,06,03,8.50
2012,04,23,06,04,8.50
2012,04,23,06,05,8.50
2012,04,23,06,06,8.50
2012,04,23,06,07,8.50
2012,04,23,06,08,8.50
2012,04,23,06,09,8.50
2012,04,23,06,10,8.50
2012,04,23,06,11,8.50
2012,04,23,06,12,8.50
2012,04,23,06,13,8.50
2012,04,23,06,14,8.50
2012,04,23,06,15,8.50
2012,04,23,06,16,8.50
2012,04,23,06,17,8.50
2012,04,23,06,18,8.60
2012,04,23,06,19,8.60
2012,04,23,06,20,8.60
2012,04,23,06,21,8.60
2012,04,23,06,22,8.60
2012,04,23,06,23,8.60
2012,04,23,06,24,8.60
2012,04,23,06,25,8.60
2012,04,23,06,26,8.50
2012,04,23,06,27,8.50
2012,04,23,06,28,8.50
2012,04,23,06,29,8.50
2012,04,23,06,30,8.50
2012,04,23,06,31,8.50
2012,04,23,06,32,8.40
2012,04,23,06,33,8.40
2012,04,23,06,34,8.40
2012,04,23,06,35,8.40
2012,04,23,06,36,8.40
2012,04,23,06,37,8.50
2012,04,23,06,38,8.50
2012,04,23,06,39,8.50
2012,04,23,06,40,8.50
2012,04,23,06,41,8.60
2012,04,23,06,42,8.60
2012,04,23,06,43,8.60
2012,04,23,06,44,8.60
2012,04,23,06,45,8.60
2012,04,23,06,46,8.60
2012,04,23,06,47,8.60
2012,04,23,06,48,8.60
2012,04,23,06,49,8.60
2012,04,23,06,50,8.60
2012,04,23,06,51,8.60
2012,04,23,06,52,8.70
2012,04,23,06,53,8.70
2012,04,23,06,54,8.70
2012,04,23,06,55,8.80
2012,04,23,06,56,8.80
2012,04,23,06,57,8.80
2012,04,23,06,58,8.90
2012,04,23,06,59,8.90
2012,04,23,07,00,8.90
2012,04,23,07,01,8.90
2012,04,23,07,02,8.90
2012,04,23,07,03,8.90
2012,04,23,07,04,8.90
2012,04,23,07,05,8.90
2012,04,23,07,06,8.90
2012,04,23,07,07,8.90
2012,04,23,07,08,8.90
2012,04,23,07,09,8.90
2012,04,23,07,10,9.00
2012,04,23,07,11,9.00
2012,04,23,07,12,9.00
2012,04,23,07,13,9.00
2012,04,23,07,14,9.00
2012,04,23,07,15,9.10
2012,04,23,07,16,9.00
2012,04,23,07,17,9.10
2012,04,23,07,18,9.10
2012,04,23,07,19,9.10
2012,04,23,07,20,9.10
2012,04,23,07,21,9.10
2012,04,23,07,22,9.10
2012,04,23,07,23,9.10
2012,04,23,07,24,9.10
2012,04,23,07,25,9.20
2012,04,23,07,26,9.20
2012,04,23,07,27,9.20
2012,04,23,07,28,9.20
2012,04,23,07,29,9.30
2012,04,23,07,30,9.30
2012,04,23,07,31,9.30
2012,04,23,07,32,9.40
2012,04,23,07,33,9.40
2012,04,23,07,34,9.40
2012,04,23,07,35,9.40
2012,04,23,07,36,9.50
2012,04,23,07,37,9.50
2012,04,23,07,38,9.60
2012,04,23,07,39,9.60
2012,04,23,07,40,9.60
2012,04,23,07,41,9.70
2012,04,23,07,42,9.80
2012,04,23,07,43,9.80
2012,04,23,07,44,9.90
2012,04,23,07,45,10.00
2012,04,23,07,46,10.00
2012,04,23,07,47,10.10
2012,04,23,07,48,10.20
2012,04,23,07,49,10.20
2012,04,23,07,50,10.20
2012,04,23,07,51,10.30
2012,04,23,07,52,10.30
2012,04,23,07,53,10.30
2012,04,23,07,54,10.30
2012,04,23,07,55,10.30
2012,04,23,07,56,10.40
2012,04,23,07,57,10.40
2012,04,23,07,58,10.40
2012,04,23,07,59,10.40
2012,04,23,08,00,10.40
2012,04,23,08,01,10.50
2012,04,23,08,02,10.50
2012,04,23,08,03,10.50
2012,04,23,08,04,10.50
2012,04,23,08,05,10.50
2012,04,23,08,06,10.60
2012,04,23,08,07,10.60
2012,04,23,08,08,10.60
2012,04,23,08,09,10.60
2012,04,23,08,10,10.60
2012,04,23,08,11,10.70
2012,04,23,08,12,10.70
2012,04,23,08,13,10.70
2012,04,23,08,14,10.70
2012,04,23,08,15,10.80
2012,04,23,08,16,10.80
2012,04,23,08,17,10.80
2012,04,23,08,18,10.80
2012,04,23,08,19,10.90
2012,04,23,08,20,10.90
2012,04,23,08,21,10.90
2012,04,23,08,22,11.00
2012,04,23,08,23,11.10
2012,04,23,08,24,11.10
2012,04,23,08,25,11.10
2012,04,23,08,26,11.20
2012,04,23,08,27,11.20
2012,04,23,08,28,11.30
2012,04,23,08,29,11.30
2012,04,23,08,30,11.40
2012,04,23,08,31,11.40
2012,04,23,08,32,11.50
2012,04,23,08,33,11.50
2012,04,23,08,34,11.60
2012,04,23,08,35,11.60
2012,04,23,08,36,11.60
2012,04,23,08,37,11.60
2012,04,23,08,38,11.70
2012,04,23,08,39,11.70
2012,04,23,08,40,11.70
2012,04,23,08,41,11.80
2012,04,23,08,42,11.80
2012,04,23,08,43,11.90
2012,04,23,08,44,11.90
2012,04,23,08,45,12.00
2012,04,23,08,46,12.10
2012,04,23,08,47,12.10
2012,04,23,08,48,12.20
2012,04,23,08,49,12.20
2012,04,23,08,50,12.30
2012,04,23,08,51,12.40
2012,04,23,08,52,12.40
2012,04,23,08,53,12.50
2012,04,23,08,54,12.50
2012,04,23,08,55,12.60
2012,04,23,08,56,12.60
2012,04,23,08,57,12.70
2012,04,23,08,58,12.70
2012,04,23,08,59,12.80
2012,04,23,09,00,12.80
2012,04,23,09,01,12.80
2012,04,23,09,02,12.80
2012,04,23,09,03,12.80
2012,04,23,09,04,12.80
2012,04,23,09,05,12.90
2012,04,23,09,06,12.90
2012,04,23,09,07,12.90
2012,04,23,09,08,12.90
2012,04,23,09,09,12.90
2012,04,23,09,10,13.00
2012,04,23,09,11,13.00
2012,04,23,09,12,12.90
2012,04,23,09,13,12.90
2012,04,23,09,14,12.80
2012,04,23,09,15,12.80
2012,04,23,09,16,12.80
2012,04,23,09,17,12.80
2012,04,23,09,18,12.80
2012,04,23,09,19,12.80
2012,04,23,09,20,12.80
2012,04,23,09,21,12.80
2012,04,23,09,22,12.80
2012,04,23,09,23,12.80
2012,04,23,09,24,12.80
2012,04,23,09,25,12.80
2012,04,23,09,26,12.80
2012,04,23,09,27,12.80
2012,04,23,09,28,12.80
2012,04,23,09,29,12.90
2012,04,23,09,30,12.90
2012,04,23,09,31,13.00
2012,04,23,09,32,13.00
2012,04,23,09,33,13.10
2012,04,23,09,34,13.10
2012,04,23,09,35,13.10
2012,04,23,09,36,13.20
2012,04,23,09,37,13.20
2012,04,23,09,38,13.30
2012,04,23,09,39,13.30
2012,04,23,09,40,13.30
2012,04,23,09,41,13.40
2012,04,23,09,42,13.40
2012,04,23,09,43,13.40
2012,04,23,09,44,13.40
2012,04,23,09,45,13.40
2012,04,23,09,46,13.40
2012,04,23,09,47,13.50
2012,04,23,09,48,13.50
2012,04,23,09,49,13.60
2012,04,23,09,50,13.70
2012,04,23,09,51,13.80
2012,04,23,09,52,13.90
2012,04,23,09,53,14.00
2012,04,23,09,54,14.10
2012,04,23,09,55,14.10
2012,04,23,09,56,14.10
2012,04,23,09,57,14.20
2012,04,23,09,58,14.20
2012,04,23,09,59,14.20
2012,04,23,10,00,14.20
2012,04,23,10,01,14.30
2012,04,23,10,02,14.30
2012,04,23,10,03,14.30
2012,04,23,10,04,14.30
2012,04,23,10,05,14.30
2012,04,23,10,06,14.40
2012,04,23,10,07,14.50
2012,04,23,10,08,14.60
2012,04,23,10,09,14.70
2012,04,23,10,10,14.80
2012,04,23,10,11,14.80
2012,04,23,10,12,14.90
2012,04,23,10,13,15.00
2012,04,23,10,14,15.10
2012,04,23,10,15,15.20
2012,04,23,10,16,15.20
2012,04,23,10,17,15.30
2012,04,23,10,18,15.20
2012,04,23,10,19,15.10
2012,04,23,10,20,15.00
2012,04,23,10,21,15.00
2012,04,23,10,22,14.90
2012,04,23,10,23,14.80
2012,04,23,10,24,14.80
2012,04,23,10,25,14.80
2012,04,23,10,26,14.80
2012,04,23,10,27,14.80
2012,04,23,10,28,14.90
2012,04,23,10,29,14.90
2012,04,23,10,30,14.90
2012,04,23,10,31,14.90
2012,04,23,10,32,14.90
2012,04,23,10,33,14.90
2012,04,23,10,34,14.90
2012,04,23,10,35,14.90
2012,04,23,10,36,14.90
2012,04,23,10,37,15.00
2012,04,23,10,38,15.10
2012,04,23,10,39,15.10
2012,04,23,10,40,15.00
2012,04,23,10,41,15.00
2012,04,23,10,42,14.90
2012,04,23,10,43,14.90
2012,04,23,10,44,15.00
2012,04,23,10,45,15.00
2012,04,23,10,46,15.00
2012,04,23,10,47,15.10
2012,04,23,10,48,15.10
2012,04,23,10,49,15.20
2012,04,23,10,50,15.20
2012,04,23,10,51,15.20
2012,04,23,10,52,15.10
2012,04,23,10,53,15.10
2012,04,23,10,54,15.10
2012,04,23,10,55,15.00
2012,04,23,10,56,14.90
2012,04,23,10,57,14.90
2012,04,23,10,58,14.80
2012,04,23,10,59,14.70
2012,04,23,11,00,14.60
2012,04,23,11,01,14.60
2012,04,23,11,02,14.60
2012,04,23,11,03,14.60
2012,04,23,11,04,14.60
2012,04,23,11,05,14.70
2012,04,23,11,06,14.70
2012,04,23,11,07,14.70
2012,04,23,11,08,14.70
2012,04,23,11,09,14.70
2012,04,23,11,10,14.70
2012,04,23,11,11,14.80
2012,04,23,11,12,14.80
2012,04,23,11,13,14.90
2012,04,23,11,14,14.90
2012,04,23,11,15,14.90
2012,04,23,11,16,14.90
2012,04,23,11,17,14.80
2012,04,23,11,18,14.70
2012,04,23,11,19,14.70
2012,04,23,11,20,14.60
2012,04,23,11,21,14.50
2012,04,23,11,22,14.50
2012,04,23,11,23,14.50
2012,04,23,11,24,14.50
2012,04,23,11,25,14.60
2012,04,23,11,26,14.60
2012,04,23,11,27,14.50
2012,04,23,11,28,14.50
2012,04,23,11,29,14.50
2012,04,23,11,30,14.50
2012,04,23,11,31,14.60
2012,04,23,11,32,14.70
2012,04,23,11,33,14.70
2012,04,23,11,34,14.70
2012,04,23,11,35,14.70
2012,04,23,11,36,14.70
2012,04,23,11,37,14.80
2012,04,23,11,38,14.90
2012,04,23,11,39,15.10
2012,04,23,11,40,15.10
2012,04,23,11,41,15.10
2012,04,23,11,42,15.10
2012,04,23,11,43,15.00
2012,04,23,11,44,14.90
2012,04,23,11,45,14.90
2012,04,23,11,46,15.00
2012,04,23,11,47,15.10
2012,04,23,11,48,15.20
2012,04,23,11,49,15.20
2012,04,23,11,50,15.30
2012,04,23,11,51,15.40
2012,04,23,11,52,15.30
2012,04,23,11,53,15.30
2012,04,23,11,54,15.20
2012,04,23,11,55,15.10
2012,04,23,11,56,15.00
2012,04,23,11,57,14.90
2012,04,23,11,58,14.90
2012,04,23,11,59,14.90
2012,04,23,12,00,15.00
2012,04,23,12,01,15.00
2012,04,23,12,02,15.00
2012,04,23,12,03,15.00
2012,04,23,12,04,14.90
2012,04,23,12,05,14.90
2012,04,23,12,06,14.90
2012,04,23,12,07,14.90
2012,04,23,12,08,14.90
2012,04,23,12,09,14.90
2012,04,23,12,10,14.80
2012,04,23,12,11,14.80
2012,04,23,12,12,14.80
2012,04,23,12,13,14.80
2012,04,23,12,14,14.90
2012,04,23,12,15,15.00
2012,04,23,12,16,15.10
2012,04,23,12,17,15.20
2012,04,23,12,18,15.30
2012,04,23,12,19,15.40
2012,04,23,12,20,15.50
2012,04,23,12,21,15.60
2012,04,23,12,22,15.70
2012,04,23,12,23,15.70
2012,04,23,12,24,15.70
2012,04,23,12,25,15.70
2012,04,23,12,26,15.70
2012,04,23,12,27,15.70
2012,04,23,12,28,15.70
2012,04,23,12,29,15.70
2012,04,23,12,30,15.80
2012,04,23,12,31,15.90
2012,04,23,12,32,15.90
2012,04,23,12,33,15.80
2012,04,23,12,34,15.70
2012,04,23,12,35,15.60
2012,04,23,12,36,15.50
2012,04,23,12,37,15.40
2012,04,23,12,38,15.30
2012,04,23,12,39,15.30
2012,04,23,12,40,15.40
2012,04,23,12,41,15.50
2012,04,23,12,42,15.50
2012,04,23,12,43,15.60
2012,04,23,12,44,15.60
2012,04,23,12,45,15.60
2012,04,23,12,46,15.60
2012,04,23,12,47,15.60
2012,04,23,12,48,15.60
2012,04,23,12,49,15.60
2012,04,23,12,50,15.60
2012,04,23,12,51,15.60
2012,04,23,12,52,15.60
2012,04,23,12,53,15.60
2012,04,23,12,54,15.60
2012,04,23,12,55,15.60
2012,04,23,12,56,15.60
2012,04,23,12,57,15.70
2012,04,23,12,58,15.70
2012,04,23,12,59,15.80
2012,04,23,13,00,15.90
2012,04,23,13,01,16.00
2012,04,23,13,02,16.10
2012,04,23,13,03,16.20
2012,04,23,13,04,16.30
2012,04,23,13,05,16.40
2012,04,23,13,06,16.50
2012,04,23,13,07,16.60
2012,04,23,13,08,16.60
2012,04,23,13,09,16.40
2012,04,23,13,10,16.30
2012,04,23,13,11,16.20
2012,04,23,13,12,16.30
2012,04,23,13,13,16.30
2012,04,23,13,14,16.30
2012,04,23,13,15,16.40
2012,04,23,13,16,16.50
2012,04,23,13,17,16.60
2012,04,23,13,18,16.60
2012,04,23,13,19,16.70
2012,04,23,13,20,16.70
2012,04,23,13,21,16.80
2012,04,23,13,22,16.90
2012,04,23,13,23,17.00
2012,04,23,13,24,17.00
2012,04,23,13,25,17.20
2012,04,23,13,26,17.30
2012,04,23,13,27,17.50
2012,04,23,13,28,17.60
2012,04,23,13,29,17.50
2012,04,23,13,30,17.40
2012,04,23,13,31,17.30
2012,04,23,13,32,17.20
2012,04,23,13,33,17.10
2012,04,23,13,34,17.20
2012,04,23,13,35,17.20
2012,04,23,13,36,17.30
2012,04,23,13,37,17.30
2012,04,23,13,38,17.30
2012,04,23,13,39,17.30
2012,04,23,13,40,17.30
2012,04,23,13,41,17.40
2012,04,23,13,42,17.40
2012,04,23,13,43,17.50
2012,04,23,13,44,17.50
2012,04,23,13,45,17.50
2012,04,23,13,46,17.40
2012,04,23,13,47,17.20
2012,04,23,13,48,17.10
2012,04,23,13,49,17.10
2012,04,23,13,50,17.10
2012,04,23,13,51,17.20
2012,04,23,13,52,17.30
2012,04,23,13,53,17.30
2012,04,23,13,54,17.40
2012,04,23,13,55,17.50
2012,04,23,13,56,17.60
2012,04,23,13,57,17.60
2012,04,23,13,58,17.70
2012,04,23,13,59,17.70
2012,04,23,14,00,17.60
2012,04,23,14,01,17.60
2012,04,23,14,02,17.60
2012,04,23,14,03,17.60
2012,04,23,14,04,17.60
2012,04,23,14,05,17.60
2012,04,23,14,06,17.60
2012,04,23,14,07,17.60
2012,04,23,14,08,17.60
2012,04,23,14,09,17.70
2012,04,23,14,10,17.80
2012,04,23,14,11,17.80
2012,04,23,14,12,17.70
2012,04,23,14,13,17.60
2012,04,23,14,14,17.50
2012,04,23,14,15,17.30
2012,04,23,14,16,17.10
2012,04,23,14,17,17.00
2012,04,23,14,18,17.00
2012,04,23,14,19,16.90
2012,04,23,14,20,16.90
2012,04,23,14,21,16.90
2012,04,23,14,22,16.80
2012,04,23,14,23,16.80
2012,04,23,14,24,16.70
2012,04,23,14,25,16.60
2012,04,23,14,26,16.50
2012,04,23,14,27,16.50
2012,04,23,14,28,16.60
2012,04,23,14,29,16.60
2012,04,23,14,30,16.50
2012,04,23,14,31,16.50
2012,04,23,14,32,16.40
2012,04,23,14,33,16.30
2012,04,23,14,34,16.20
2012,04,23,14,35,16.10
2012,04,23,14,36,16.10
2012,04,23,14,37,16.10
2012,04,23,14,38,16.10
2012,04,23,14,39,16.10
2012,04,23,14,40,16.20
2012,04,23,14,41,16.20
2012,04,23,14,42,16.20
2012,04,23,14,43,16.10
2012,04,23,14,44,16.00
2012,04,23,14,45,16.00
2012,04,23,14,46,16.00
2012,04,23,14,47,16.10
2012,04,23,14,48,16.10
2012,04,23,14,49,16.10
2012,04,23,14,50,16.20
2012,04,23,14,51,16.20
2012,04,23,14,52,16.30
2012,04,23,14,53,16.40
2012,04,23,14,54,16.50
2012,04,23,14,55,16.60
2012,04,23,14,56,16.60
2012,04,23,14,57,16.60
2012,04,23,14,58,16.50
2012,04,23,14,59,16.50
2012,04,23,15,00,16.40
2012,04,23,15,01,16.20
2012,04,23,15,02,16.10
2012,04,23,15,03,16.20
2012,04,23,15,04,16.20
2012,04,23,15,05,16.20
2012,04,23,15,06,16.20
2012,04,23,15,07,16.20
2012,04,23,15,08,16.30
2012,04,23,15,09,16.40
2012,04,23,15,10,16.40
2012,04,23,15,11,16.50
2012,04,23,15,12,16.60
2012,04,23,15,13,16.60
2012,04,23,15,14,16.60
2012,04,23,15,15,16.50
2012,04,23,15,16,16.50
2012,04,23,15,17,16.50
2012,04,23,15,18,16.60
2012,04,23,15,19,16.60
2012,04,23,15,20,16.70
2012,04,23,15,21,16.70
2012,04,23,15,22,16.70
2012,04,23,15,23,16.80
2012,04,23,15,24,16.80
2012,04,23,15,25,16.90
2012,04,23,15,26,17.00
2012,04,23,15,27,17.10
2012,04,23,15,28,17.10
2012,04,23,15,29,17.10
2012,04,23,15,30,17.00
2012,04,23,15,31,17.00
2012,04,23,15,32,16.90
2012,04,23,15,33,16.90
2012,04,23,15,34,16.90
2012,04,23,15,35,16.90
2012,04,23,15,36,16.90
2012,04,23,15,37,17.00
2012,04,23,15,38,17.10
2012,04,23,15,39,17.10
2012,04,23,15,40,17.20
2012,04,23,15,41,17.20
2012,04,23,15,42,17.20
2012,04,23,15,43,17.20
2012,04,23,15,44,17.10
2012,04,23,15,45,17.00
2012,04,23,15,46,17.00
2012,04,23,15,47,17.00
2012,04,23,15,48,17.10
2012,04,23,15,49,17.20
2012,04,23,15,50,17.30
2012,04,23,15,51,17.40
2012,04,23,15,52,17.40
2012,04,23,15,53,17.40
2012,04,23,15,54,17.40
2012,04,23,15,55,17.40
2012,04,23,15,56,17.40
2012,04,23,15,57,17.30
2012,04,23,15,58,17.30
2012,04,23,15,59,17.20
2012,04,23,16,00,17.10
2012,04,23,16,01,17.10
2012,04,23,16,02,17.00
2012,04,23,16,03,17.00
2012,04,23,16,04,17.00
2012,04,23,16,05,17.00
2012,04,23,16,06,16.90
2012,04,23,16,07,16.90
2012,04,23,16,08,16.90
2012,04,23,16,09,16.90
2012,04,23,16,10,16.90
2012,04,23,16,11,16.80
2012,04,23,16,12,16.80
2012,04,23,16,13,16.80
2012,04,23,16,14,16.80
2012,04,23,16,15,16.80
2012,04,23,16,16,16.80
2012,04,23,16,17,16.70
2012,04,23,16,18,16.70
2012,04,23,16,19,16.70
2012,04,23,16,20,16.70
2012,04,23,16,21,16.80
2012,04,23,16,22,16.90
2012,04,23,16,23,16.90
2012,04,23,16,24,17.00
2012,04,23,16,25,17.00
2012,04,23,16,26,17.00
2012,04,23,16,27,17.00
2012,04,23,16,28,17.10
2012,04,23,16,29,17.10
2012,04,23,16,30,17.00
2012,04,23,16,31,17.00
2012,04,23,16,32,16.90
2012,04,23,16,33,16.90
2012,04,23,16,34,16.90
2012,04,23,16,35,17.00
2012,04,23,16,36,17.00
2012,04,23,16,37,17.10
2012,04,23,16,38,17.10
2012,04,23,16,39,17.10
2012,04,23,16,40,17.10
2012,04,23,16,41,17.10
2012,04,23,16,42,17.00
2012,04,23,16,43,17.00
2012,04,23,16,44,17.00
2012,04,23,16,45,17.00
2012,04,23,16,46,17.00
2012,04,23,16,47,17.00
2012,04,23,16,48,17.00
2012,04,23,16,49,17.10
2012,04,23,16,50,17.20
2012,04,23,16,51,17.20
2012,04,23,16,52,17.20
2012,04,23,16,53,17.20
2012,04,23,16,54,17.20
2012,04,23,16,55,17.20
2012,04,23,16,56,17.20
2012,04,23,16,57,17.20
2012,04,23,16,58,17.20
2012,04,23,16,59,17.30
2012,04,23,17,00,17.40
2012,04,23,17,01,17.50
2012,04,23,17,02,17.50
2012,04,23,17,03,17.60
2012,04,23,17,04,17.60
2012,04,23,17,05,17.60
2012,04,23,17,06,17.60
2012,04,23,17,07,17.60
2012,04,23,17,08,17.60
2012,04,23,17,09,17.70
2012,04,23,17,10,17.70
2012,04,23,17,11,17.70
2012,04,23,17,12,17.70
2012,04,23,17,13,17.70
2012,04,23,17,14,17.70
2012,04,23,17,15,17.70
2012,04,23,17,16,17.70
2012,04,23,17,17,17.70
2012,04,23,17,18,17.60
2012,04,23,17,19,17.60
2012,04,23,17,20,17.60
2012,04,23,17,21,17.60
2012,04,23,17,22,17.60
2012,04,23,17,23,17.60
2012,04,23,17,24,17.60
2012,04,23,17,25,17.60
2012,04,23,17,26,17.50
2012,04,23,17,27,17.50
2012,04,23,17,28,17.40